Location: Anjeux
(47.8815°N, 6.2076°E)
Time: 20:54:46
(UTC+00:00)

Cosmos 2297 Rocket - Pass Details

Date: 05 March 2021
Orbit: 839 x 844 km, 71.0° (Epoch: 20 April)

Event Time Altitude Azimuth Distance (km) Brightness Sun altitude
Rises 05:35:28 0° 188° (S) 3,377 5.3 -6.3°
Reaches altitude 10° 05:37:58 10° 183° (S) 2,447 4.6 -5.9°
Maximum altitude 05:43:20 49° 110° (ESE) 1,070 3.4 -5.0°
Drops below altitude 10° 05:48:46 10° 37° (NE) 2,465 5.1 -4.1°
Sets 05:51:16 0° 32° (NNE) 3,404 5.7 -3.6°
